Terug naar catalogus

KUIPER-00193

ActiefCommunicatieLEO
NORAD 68576·PAYLOAD·🇺🇸 United States

Gelanceerd Apr 4, 2026 vanaf Cape Canaveral Space Force Station

Loading…

Volgende Passages (komende 24 uur)

TLE

VersSource: CelesTrak SupGP

Epoch: Sep 15, 2026, 01:00 UTC

1 68576C 26072D   26258.04212963  .00004579  00000+0  59935-3 0  2585
2 68576  51.9033 145.8564 0001158 100.2661 202.4628 14.79931922    11

Volg KUIPER-00193 in realtime met AllMySat

Download on the App Store